Tracking 34223 objects as of 31-May-2026
HD Live streaming from Space Station
objects crossing your sky now

FORMOSAT7-4/COSMIC2-4

Track FORMOSAT7-4/COSMIC2-4 now!
10-day predictions


NORAD ID: 44350
Int'l Code: 2019-036M
Perigee: 584.4 km
Apogee: 585.9 km
Inclination: 24.0 °
Period: 96.2 minutes
Semi major axis: 6956 km
RCS: Unknown
Launch date: June 25, 2019
Source: Taiwan (Republic of China) (ROC)
Launch site: AIR FORCE EASTERN TEST RANGE (AFETR)
Your satellite tracking list
Your tracking list is empty




NASA's NSSDC Master Catalog

Two Line Element Set (TLE):
1 44350U 19036M   26150.46602011  .00003318  00000-0  25962-3 0  9991
2 44350  23.9974 213.9656 0001080   5.0231 355.0280 14.96419752381412
Source of the keplerian elements: AFSPC